Walterboro, SC

6:21 AM EST on February 08, 2016 (GMT -0500)
Lowcountry Regional

Weather History for KRBW - April, 2013

Change the Weather History Date:

Saturday, April 27, 2013

  Actual Average Record
Temperature  
Mean Temperature 62 °F -  
Max Temperature 73 °F 79 °F 89 °F (2012)
Min Temperature 50 °F 52 °F 50 °F (2013)
Degree Days  
Heating Degree Days 4    
Growing Degree Days 12 (Base 50)    
Moisture  
Dew Point 53 °F    
Average Humidity 76    
Maximum Humidity 100    
Minimum Humidity 44    
Precipitation  
Precipitation 0.00 in - - ()
Sea Level Pressure  
Sea Level Pressure 30.30 in    
Wind  
Wind Speed 3 mph (ENE)    
Max Wind Speed 12 mph    
Max Gust Speed -    
Visibility 10 miles    
Events Rain    
Averages and records for this station are not official NWS values.
T = Trace of Precipitation, MM = Missing Value Source: NWS Daily Summary

Daily Weather History Graph

Daily Weather History Graph

Search for Another Location

Airport or City:

Trip Planner

Search our weather history database for the weather conditions in past years. The results will help you decide how hot, cold, wet, or windy it might be!

Date:

Astronomy

Apr. 27, 2013 Rise Set
Actual Time 6:38 AM EDT 8:01 PM EDT
Civil Twilight 6:12 AM EDT 8:27 PM EDT
Nautical Twilight 5:41 AM EDT 8:59 PM EDT
Astronomical Twilight 5:09 AM EDT 9:31 PM EDT
Moon 10:23 PM EDT (4/27) 8:01 AM EDT (4/27)
Length of Visible Light 14h 14m
Length of Day
13h 22m
Waning Gibbous, 95% of the Moon is Illuminated
Apr 27
Waning Gibbous
May 2
Last Quarter
May 9
New
May 18
First Quarter
May 25
Full

Hourly Weather History & Observations

Time (EDT) Temp. Dew Point Humidity Pressure Visibility Wind Dir Wind Speed Gust Speed Precip Events Conditions
12:15 AM 53.6 °F 51.8 °F 94% 30.33 in 10.0 mi East 3.5 mph - N/A   Clear
12:35 AM 51.8 °F 51.8 °F 100% 30.33 in 10.0 mi ENE 3.5 mph - N/A   Clear
12:55 AM 51.8 °F 51.8 °F 100% 30.34 in 10.0 mi Calm Calm - N/A   Clear
1:15 AM 51.8 °F 51.8 °F 100% 30.34 in 10.0 mi Calm Calm - N/A   Clear
1:35 AM 51.8 °F 51.8 °F 100% 30.34 in 10.0 mi Calm Calm - N/A   Clear
1:55 AM 50.0 °F 50.0 °F 100% 30.34 in 10.0 mi Calm Calm - N/A   Clear
2:15 AM 50.0 °F 50.0 °F 100% 30.33 in 10.0 mi Calm Calm - N/A   Clear
2:35 AM 51.8 °F 51.8 °F 100% 30.32 in 10.0 mi Calm Calm - N/A   Clear
3:15 AM 50.0 °F 50.0 °F 100% 30.32 in 10.0 mi Calm Calm - N/A   Clear
3:35 AM 50.0 °F 50.0 °F 100% 30.32 in 10.0 mi Calm Calm - N/A   Clear
3:55 AM 50.0 °F 50.0 °F 100% 30.32 in 10.0 mi Calm Calm - N/A   Clear
4:15 AM 50.0 °F 50.0 °F 100% 30.32 in 10.0 mi Calm Calm - N/A   Clear
4:35 AM 50.0 °F 50.0 °F 100% 30.32 in 10.0 mi Calm Calm - N/A   Clear
4:55 AM 51.8 °F 51.8 °F 100% 30.32 in 10.0 mi Calm Calm - N/A   Clear
5:15 AM 51.8 °F 51.8 °F 100% 30.31 in 10.0 mi Calm Calm - N/A   Clear
5:35 AM 51.8 °F 51.8 °F 100% 30.31 in 10.0 mi Calm Calm - N/A   Clear
5:55 AM 51.8 °F 51.8 °F 100% 30.32 in 10.0 mi NNW 3.5 mph - N/A   Clear
6:15 AM 51.8 °F 51.8 °F 100% 30.32 in 10.0 mi NNW 3.5 mph - N/A   Clear
7:35 AM 55.4 °F 55.4 °F 100% 30.34 in 10.0 mi Calm Calm - N/A   Overcast
7:55 AM 55.4 °F 55.4 °F 100% 30.35 in 10.0 mi NNE 3.5 mph - N/A   Overcast
8:15 AM 55.4 °F 55.4 °F 100% 30.37 in 10.0 mi NNW 5.8 mph - N/A Rain Light Rain
8:35 AM 55.4 °F 55.4 °F 100% 30.37 in 7.0 mi NNE 6.9 mph - N/A Rain Rain
8:55 AM 55.4 °F 55.4 °F 100% 30.36 in 7.0 mi Calm Calm - N/A Rain Light Rain
9:15 AM 57.2 °F 57.2 °F 100% 30.35 in 10.0 mi Calm Calm - N/A   Overcast
9:35 AM 59.0 °F 59.0 °F 100% 30.34 in 10.0 mi NE 3.5 mph - N/A   Mostly Cloudy
9:55 AM 60.8 °F 60.8 °F 100% 30.34 in 10.0 mi Calm Calm - N/A   Mostly Cloudy
10:15 AM 60.8 °F 60.8 °F 100% 30.33 in 10.0 mi ENE 3.5 mph - N/A   Overcast
10:35 AM 62.6 °F 59.0 °F 88% 30.33 in 10.0 mi Calm Calm - N/A   Mostly Cloudy
11:15 AM 64.4 °F 57.2 °F 77% 30.33 in 10.0 mi Calm Calm - N/A   Mostly Cloudy
11:35 AM 66.2 °F 55.4 °F 68% 30.34 in 10.0 mi Calm Calm - N/A   Scattered Clouds
11:55 AM 68.0 °F 57.2 °F 68% 30.33 in 10.0 mi Calm Calm - N/A   Mostly Cloudy
12:15 PM 68.0 °F 55.4 °F 64% 30.33 in 10.0 mi Calm Calm - N/A   Mostly Cloudy
12:35 PM 69.8 °F 55.4 °F 60% 30.32 in 10.0 mi East 5.8 mph - N/A   Overcast
12:55 PM 69.8 °F 53.6 °F 56% 30.32 in 10.0 mi ENE 3.5 mph - N/A   Overcast
1:15 PM 69.8 °F 55.4 °F 60% 30.31 in 10.0 mi East 6.9 mph - N/A   Overcast
1:35 PM 71.6 °F 55.4 °F 57% 30.31 in 10.0 mi ESE 5.8 mph - N/A   Mostly Cloudy
1:55 PM 71.6 °F 55.4 °F 57% 30.30 in 10.0 mi East 9.2 mph - N/A   Scattered Clouds
2:15 PM 73.4 °F 55.4 °F 53% 30.30 in 10.0 mi East 6.9 mph - N/A   Mostly Cloudy
2:35 PM 73.4 °F 55.4 °F 53% 30.29 in 10.0 mi East 11.5 mph - N/A   Mostly Cloudy
2:55 PM 73.4 °F 55.4 °F 53% 30.29 in 10.0 mi East 6.9 mph - N/A   Mostly Cloudy
3:15 PM 71.6 °F 55.4 °F 57% 30.28 in 10.0 mi East 8.1 mph - N/A   Mostly Cloudy
3:35 PM 71.6 °F 53.6 °F 53% 30.27 in 10.0 mi East 5.8 mph - N/A   Mostly Cloudy
3:55 PM 71.6 °F 51.8 °F 50% 30.27 in 10.0 mi East 8.1 mph - N/A   Overcast
4:15 PM 73.4 °F 51.8 °F 47% 30.26 in 10.0 mi ESE 5.8 mph - N/A   Overcast
4:35 PM 73.4 °F 50.0 °F 44% 30.26 in 10.0 mi East 9.2 mph - N/A   Overcast
4:55 PM 73.4 °F 51.8 °F 47% 30.26 in 10.0 mi ESE 5.8 mph - N/A   Overcast
5:15 PM 73.4 °F 50.0 °F 44% 30.27 in 10.0 mi East 10.4 mph - N/A   Overcast
5:35 PM 71.6 °F 50.0 °F 46% 30.26 in 10.0 mi ENE 6.9 mph - N/A   Overcast
5:55 PM 71.6 °F 50.0 °F 46% 30.26 in 10.0 mi ENE 6.9 mph - N/A   Overcast
6:15 PM 69.8 °F 50.0 °F 49% 30.26 in 10.0 mi ENE 6.9 mph - N/A   Overcast
6:35 PM 69.8 °F 50.0 °F 49% 30.27 in 10.0 mi ENE 5.8 mph - N/A   Overcast
6:55 PM 69.8 °F 50.0 °F 49% 30.27 in 10.0 mi ENE 5.8 mph - N/A   Overcast
7:15 PM 68.0 °F 51.8 °F 56% 30.27 in 10.0 mi ENE 3.5 mph - N/A   Overcast
7:35 PM 68.0 °F 51.8 °F 56% 30.26 in 10.0 mi East 4.6 mph - N/A   Overcast
7:55 PM 66.2 °F 50.0 °F 56% 30.26 in 10.0 mi East 6.9 mph - N/A   Scattered Clouds
8:15 PM 64.4 °F 50.0 °F 59% 30.26 in 10.0 mi East 6.9 mph - N/A   Clear
8:35 PM 62.6 °F 50.0 °F 63% 30.27 in 10.0 mi East 4.6 mph - N/A   Scattered Clouds
8:55 PM 60.8 °F 50.0 °F 68% 30.26 in 10.0 mi ESE 5.8 mph - N/A   Clear
9:15 PM 60.8 °F 50.0 °F 68% 30.26 in 10.0 mi East 3.5 mph - N/A   Clear
9:35 PM 60.8 °F 50.0 °F 68% 30.27 in 10.0 mi ENE 3.5 mph - N/A   Clear
9:55 PM 59.0 °F 50.0 °F 72% 30.27 in 10.0 mi East 5.8 mph - N/A   Clear
10:15 PM 59.0 °F 50.0 °F 72% 30.27 in 10.0 mi East 5.8 mph - N/A   Scattered Clouds
10:35 PM 59.0 °F 50.0 °F 72% 30.27 in 10.0 mi East 3.5 mph - N/A   Scattered Clouds
10:55 PM 57.2 °F 50.0 °F 77% 30.27 in 10.0 mi East 3.5 mph - N/A   Clear
11:15 PM 57.2 °F 50.0 °F 77% 30.26 in 10.0 mi ENE 3.5 mph - N/A   Clear
11:35 PM 55.4 °F 50.0 °F 82% 30.25 in 10.0 mi ENE 4.6 mph - N/A   Scattered Clouds
11:55 PM 53.6 °F 50.0 °F 88% 30.24 in 10.0 mi East 3.5 mph - N/A   Clear